Location: Emory University Observatory
(33.7903°N, 84.3267°W)
Time: 05:25:05
(UTC-05:00)

Envisat - Pass Details

Date: 09 October 2017
Orbit: 764 x 766 km, 98.2° (Epoch: 11 December)

Event Time Altitude Azimuth Distance (km) Brightness Sun altitude
Exits shadow 21:44:41 30° 338° (NNW) 1,345 4.5 -32.6°
Drops below altitude 10° 21:47:14 10° 344° (NNW) 2,308 5.8 -33.1°
Sets 21:49:33 0° 346° (NNW) 3,238 6.6 -33.6°
